Regional Weather Roundup
Issued by NWS

Home | Current Version | Previous Version | Graphics & Text | Print | Product List | Glossary On
Versions: 1 2 3 4 5 6 7 8 9 10 11 12 13 14 15 16 17 18 19 20 21 22 23 24 25 26 27 28 29 30 31 32 33 34 35 36 37 38 39 40 41 42 43 44 45 46 47 48 49 50
000
ASUS43 KMPX 160510
RWRMN
WEATHER ROUNDUP FOR MINNESOTA
NATIONAL WEATHER SERVICE TWIN CITIES/CHANHASSEN MN
1200 AM CDT TUE SEP 16 2014


NOTE: "FAIR" INDICATES FEW OR NO CLOUDS BELOW 12,000 FEET WITH NO
SIGNIFICANT WEATHER AND/OR OBSTRUCTIONS TO VISIBILITY. N/A MEANS
CURRENT SKY AND/OR WEATHER CONDITIONS ARE NOT AVAILABLE.

MNZ060>063-068>070-160600-
   Twin Cities Metro

CITY           SKY/WX    TMP DP  RH WIND       PRES   REMARKS
TWIN CITIES    CLEAR     49  42  77 CALM      30.22S
ST PAUL        CLEAR     46  42  86 CALM      30.23S
CRYSTAL        CLEAR     45  41  86 CALM      30.20F
BLAINE         CLEAR     43  43 100 CALM      30.21F
LAKEVILLE      CLEAR     39  37  93 CALM      30.22S
EDEN PRAIRIE   CLEAR     45  43  93 CALM      30.21S
SOUTH ST PAUL  CLEAR     45  41  85 CALM      30.22S
LAKE ELMO      FAIR      41  39  93 CALM      30.22F
$$
MNZ001>005-007-008-013>017-022>024-027-028-160600-
   Northwest Minnesota

CITY           SKY/WX    TMP DP  RH WIND       PRES   REMARKS
BEMIDJI        CLEAR     46  38  73 SW7       30.11S
HALLOCK        CLEAR     43  37  81 SW6       30.03S
ROSEAU         PTCLDY    46  41  81 SW9       30.03F
WARROAD        PTCLDY    46  43  87 SW8       30.03F
THIEF RVR FALL CLEAR     48  39  71 SW7       30.08S
CROOKSTON      CLEAR     46  41  81 SW8       30.09F
FOSSTON        CLEAR     45  37  76 SW10      30.11S
DETROIT LAKES  CLEAR     50  37  62 SW8       30.15S
MOORHEAD       CLEAR     48  43  81 SW8       30.14F
PARK RAPIDS    CLEAR     43  38  82 SW5       30.14S
MAHNOMEN       FAIR      42  37  83 S9        30.12S
$$
MNZ006-009>011-018-025>026-160600-
   North Central Minnesota

CITY           SKY/WX    TMP DP  RH WIND       PRES   REMARKS
BAUDETTE       CLEAR     43  38  82 SW7       30.03F
FLAG ISLAND    PTCLDY    52  45  76 SW10      29.99F
INTL FALLS     PTCLDY    40  38  93 S3        30.05F
WASKISH        CLEAR     46  41  81 CALM      30.06F
BIG FORK       CLEAR     37  36  93 SW5       30.10F
LONGVILLE      CLEAR     46  39  76 SW6       30.13F
GRAND RAPIDS   CLEAR     45  36  70 S8        30.12F
CRANE LAKE     PTCLDY    36  36 100 S3        30.09F
ORR            PTCLDY    43  36  75 SW5       30.07S
COOK           PTCLDY    45  36  70 SW6       30.10S
WALKER         FAIR      47  37  69 SW8       30.12F
$$
MNZ012-019>021-037-160600-
   Northeast Minnesota

CITY           SKY/WX    TMP DP  RH WIND       PRES   REMARKS
DULUTH         CLEAR     46  35  65 SW9       30.14F
ELY            PTCLDY    41  36  81 CALM      30.10S
HIBBING        PTCLDY    34  31  88 CALM      30.12F FOG
EVELETH        PTCLDY    36  36 100 CALM      30.12F
DULUTH HARBOR  CLEAR     46  41  81 SW9       30.15F
TWO HARBORS    CLEAR     43  36  75 W5        30.11F
SILVER BAY     PTCLDY    36  36 100 CALM      30.11S
GRAND MARAIS     N/A     51  37  58 NW6       30.07F
G MARAIS ARPRT PTCLDY    39  34  81 W5        30.09S
$$
MNZ029>031-032-039>041-046>048-054>057-064-160600-
   West Central Minnesota

CITY           SKY/WX    TMP DP  RH WIND       PRES   REMARKS
FERGUS FALLS   CLEAR     43  34  70 S6        30.18F
WHEATON        CLEAR     43  36  75 S8        30.20
MORRIS         CLEAR     43  36  75 S5        30.19S
ALEXANDRIA     CLEAR     44  38  79 SW8       30.20S
ELBOW LAKE     FAIR      41  36  81 S7        30.18F
WADENA         CLEAR     43  36  75 S6        30.16F
GLENWOOD       CLEAR     43  37  81 S5        30.20F
APPLETON       CLEAR     43  39  87 S3        30.20S
BENSON         CLEAR     41  37  87 SW3       30.21S
ORTONVILLE     CLEAR     46  36  66 S3        30.20F
MADISON        CLEAR     45  39  81 SW5       30.21F
WILLMAR        FAIR      41  37  87 CALM      30.23S
$$
MNZ033>034-036-042>043-049>051-058-059-160600-
   Central Minnesota

CITY           SKY/WX    TMP DP  RH WIND       PRES   REMARKS
ST CLOUD       CLEAR     42  39  89 CALM      30.20F
SAUK CENTRE    FAIR      40  36  84 CALM      30.20F
PAYNESVILLE    CLEAR     36  35  98 CALM      30.21F
AITKIN         CLEAR     45  37  76 CALM      30.15S
PINE RIVER     CLEAR     36  36 100 CALM      30.18F
BRAINERD       CLEAR     42  37  82 SW5       30.17F
STAPLES        CLEAR     43  36  75 S5        30.17S
LONG PRAIRIE   FAIR      39  37  93 CALM      30.20S
LITTLE FALLS   CLEAR     41  37  87 CALM      30.19S
LITCHFIELD     CLEAR     45  43  93 CALM      30.22S
BUFFALO        CLEAR     42  39  88 CALM      30.22S
MAPLE LAKE     CLEAR     41  40  97 CALM      30.22S
$$
MNZ037-044-045-052-053-160600-
   East Central Minnesota

CITY           SKY/WX    TMP DP  RH WIND       PRES   REMARKS
PRINCETON      CLEAR     39  37  93 CALM      30.21S
MORA           CLEAR     37  36  93 CALM      30.20F
CAMBRIDGE      CLEAR     43  36  75 CALM      30.18F
RUSH CITY      CLEAR     38  37  95 CALM      30.20F
MOOSE LAKE     CLEAR     36  34  93 W3        30.15F
HINCKLEY       FAIR      37  37 100 CALM      30.18F
CLOQUET        CLEAR     45  36  70 SW7       30.15S
MCGREGOR       CLEAR     43  37  81 S3        30.16S
$$
MNZ071>073-080-081-089-090-097-098-160600-
   Southwest Minnesota

CITY           SKY/WX    TMP DP  RH WIND       PRES   REMARKS
MONTEVIDEO     CLEAR     43  37  81 SW6       30.22F
GRANITE FALLS  CLEAR     39  37  91 S5        30.24S
CANBY          CLEAR     42  39  88 CALM      30.23F
MARSHALL       CLEAR     41  36  81 SW5       30.22S
REDWOOD FALLS  CLEAR     45  38  76 SW3       30.23R
OLIVIA         CLEAR     43  37  81 CALM      30.22S
PIPESTONE      CLEAR     45  39  81 CALM        N/A
WINDOM         CLEAR     41  39  93 CALM      30.24F
WORTHINGTON    CLEAR     43  41  93 CALM      30.25S
JACKSON        CLEAR     41  37  87 CALM      30.25S
TRACY          CLEAR     46  42  88 CALM      30.24S
SLAYTON        CLEAR     42  39  91 CALM      30.25S
$$
MNZ065>067-074>077-082>085-091>093-160600-
   South Central Minnesota

CITY           SKY/WX    TMP DP  RH WIND       PRES   REMARKS
MANKATO        CLEAR     46  41  81 CALM      30.23S
NEW ULM        CLEAR     43  43 100 SW3       30.23S
ST JAMES       CLEAR     41  39  93 CALM      30.24F
FAIRMONT       CLEAR     43  36  75 CALM      30.24S
GLENCOE        CLEAR     44  40  87 CALM      30.22S
FARIBAULT      CLEAR     41  36  81 CALM      30.23S
OWATONNA       CLEAR     41  39  93 CALM      30.23S FOG
WASECA         CLEAR     37  34  87 CALM      30.25S
ALBERT LEA     CLEAR     43  43 100 CALM      30.24S FOG
$$
MNZ078>079-086>088-094>096-160600-
   Southeast Minnesota

CITY           SKY/WX    TMP DP  RH WIND       PRES   REMARKS
ROCHESTER      CLEAR     45  39  79 W6        30.23S
RED WING       CLEAR     43  39  87 N3        30.22R
STANTON        CLEAR     41  39  91 CALM      30.21S
DODGE CENTER   CLEAR     41  39  93 W3        30.23S
WINONA         CLEAR     43  43 100 CALM      30.23S
AUSTIN         CLEAR     43  41  93 CALM      30.23S
PRESTON        CLEAR     45  43  93 W7        30.24S
$$
ABBREVIATIONS USED IN REMARKS
   TC - TEMPERATURES IN CELSIUS
  WCI - WIND CHILL INDEX
   HX - HEAT INDEX
  VSB - VISIBILITY
$$


USA.gov is the U.S. government's official web portal to all federal, state and local government web resources and services.